QPF
0.00 0.00 0.00 0.00 0.00 0.00 0.00 0.00 0.00 0.00 0.00 0.00 0.00 0.00 0.00 0.00 0.00 0.00 0.00 0.00 0.00 0.00 0.00 0.00 0.00 0.00 0.00 0.00 0.00 0.00 0.00 0.00 0.00 0.00 0.00 0.00 0.00 0.00 0.00 0.00 0.00 0.00 0.00 0.01
0.00 0.00 0.00 0.00 0.00 0.00 0.00 0.00 0.00 0.00 0.00 0.00 0.00 0.00 0.00 0.00 0.00 0.00 0.00 0.00 0.00 0.00 0.00 0.00 0.00 0.00 0.00 0.00 0.00 0.00 0.00 0.00 0.00 0.00 0.00 0.00 0.00 0.00 0.00 0.00 0.00 0.00 0.00 0.00
0.00 0.00 0.00 0.00 0.00 0.00 0.00 0.00 0.00 0.00 0.00 0.00 0.00 0.00 0.00 0.00 0.00 0.00 0.00 0.00 0.00 0.00 0.00 0.00 0.00 0.00 0.00 0.00 0.00 0.00 0.00 0.00 0.00 0.00 0.00 0.00 0.00 0.00 0.00 0.00 0.00 0.00 0.00 0.00
0.00 0.00 0.00 0.00 0.00 0.00 0.00 0.00 0.00 0.00 0.00 0.00 0.00 0.00 0.00 0.00 0.00 0.00 0.00 0.00 0.00 0.00 0.00 0.00 0.00 0.00 0.00 0.00 0.00 0.00 0.00 0.00 0.00 0.00 0.00 0.00 0.00 0.00 0.01 0.00 0.00 0.00 0.00 0.00
0.00 0.00 0.00 0.00 0.00 0.00 0.00 0.00 0.00 0.00 0.00 0.00 0.00 0.00 0.00 0.00 0.00 0.00 0.00 0.00 0.00 0.00 0.00 0.00 0.00 0.00 0.00 0.00 0.00 0.00 0.00 0.00 0.00 0.00 0.00 0.00 0.00 0.00 0.00 0.00 0.00 0.00 0.00 0.01
0.00 0.00 0.00 0.00 0.00 0.00 0.00 0.00 0.00 0.00 0.00 0.00 0.00 0.00 0.00 0.00 0.00 0.00 0.00 0.00 0.00 0.00 0.00 0.00 0.00 0.00 0.00 0.00 0.00 0.00 0.00 0.00 0.00 0.00 0.00 0.00 0.00 0.00 0.00 0.00 0.00 0.01 0.01 0.01
0.00 0.00 0.00 0.00 0.00 0.00 0.00 0.00 0.00 0.00 0.00 0.00 0.00 0.00 0.00 0.00 0.00 0.00 0.00 0.00 0.00 0.00 0.00 0.00 0.00 0.00 0.00 0.00 0.00 0.00 0.00 0.00 0.00 0.00 0.00 0.00 0.00 0.00 0.01 0.00 0.02 0.05 0.01 0.01
0.00 0.00 0.00 0.00 0.00 0.00 0.00 0.00 0.00 0.00 0.00 0.00 0.00 0.00 0.00 0.00 0.00 0.00 0.00 0.00 0.00 0.00 0.00 0.00 0.00 0.00 0.00 0.00 0.00 0.00 0.00 0.00 0.00 0.00 0.01 0.07 0.08 0.06 0.04 0.06 0.10 0.06 0.04 0.06
0.00 0.00 0.00 0.00 0.00 0.00 0.00 0.00 0.00 0.00 0.00 0.00 0.00 0.00 0.00 0.00 0.00 0.00 0.00 0.00 0.00 0.00 0.00 0.00 0.00 0.00 0.00 0.00 0.00 0.00 0.00 0.00 0.00 0.03 0.14 0.18 0.29 0.16 0.13 0.11 0.10 0.04 0.02 0.01
0.00 0.00 0.00 0.00 0.00 0.00 0.00 0.00 0.00 0.00 0.00 0.00 0.00 0.00 0.00 0.00 0.00 0.00 0.00 0.00 0.00 0.00 0.00 0.00 0.00 0.00 0.00 0.00 0.00 0.00 0.00 0.00 0.00 0.04 0.07 0.10 0.13 0.07 0.03 0.03 0.06 0.04 0.03 0.01
0.00 0.00 0.00 0.00 0.00 0.00 0.00 0.00 0.00 0.00 0.00 0.00 0.00 0.00 0.00 0.00 0.00 0.00 0.00 0.00 0.00 0.00 0.00 0.00 0.00 0.00 0.00 0.00 0.00 0.00 0.00 0.00 0.00 0.00 0.01 0.01 0.06 0.05 0.01 0.00 0.00 0.00 0.00 0.00
0.00 0.00 0.00 0.00 0.00 0.00 0.00 0.00 0.00 0.00 0.00 0.00 0.00 0.00 0.00 0.00 0.00 0.00 0.00 0.00 0.00 0.00 0.00 0.00 0.00 0.00 0.00 0.00 0.00 0.00 0.00 0.00 0.00 0.00 0.01 0.01 0.02 0.01 0.00 0.00 0.01 0.01 0.00 0.00
0.00 0.00 0.00 0.00 0.00 0.00 0.00 0.00 0.00 0.00 0.00 0.00 0.00 0.00 0.00 0.00 0.00 0.00 0.00 0.00 0.00 0.00 0.00 0.00 0.00 0.00 0.00 0.00 0.00 0.00 0.00 0.00 0.01 0.01 0.00 0.01 0.00 0.00 0.00 0.00 0.00 0.00 0.00 0.00
0.00 0.00 0.00 0.00 0.00 0.00 0.00 0.00 0.00 0.00 0.00 0.00 0.00 0.00 0.00 0.00 0.00 0.00 0.00 0.00 0.00 0.00 0.00 0.00 0.00 0.00 0.00 0.00 0.00 0.00 0.00 0.00 0.00 0.00 0.00 0.00 0.00 0.00 0.00 0.00 0.00 0.00 0.01 0.00
0.00 0.00 0.00 0.00 0.00 0.00 0.00 0.00 0.00 0.00 0.00 0.00 0.00 0.00 0.00 0.00 0.00 0.00 0.00 0.00 0.00 0.00 0.00 0.00 0.00 0.00 0.00 0.00 0.00 0.00 0.00 0.00 0.00 0.00 0.00 0.00 0.00 0.00 0.00 0.00 0.01 0.03 0.03 0.01
0.00 0.00 0.00 0.00 0.00 0.00 0.00 0.00 0.00 0.00 0.00 0.00 0.00 0.00 0.00 0.00 0.00 0.00 0.00 0.00 0.00 0.00 0.00 0.00 0.00 0.00 0.00 0.00 0.00 0.00 0.00 0.00 0.00 0.00 0.00 0.00 0.00 0.00 0.00 0.00 0.00 0.00 0.00 0.00
0.00 0.00 0.00 0.00 0.00 0.00 0.00 0.00 0.00 0.00 0.00 0.00 0.00 0.00 0.00 0.00 0.00 0.00 0.00 0.00 0.00 0.00 0.00 0.00 0.00 0.00 0.00 0.00 0.00 0.00 0.00 0.00 0.00 0.00 0.00 0.00 0.00 0.00 0.00 0.00 0.00 0.00 0.00 0.00
0.00 0.00 0.00 0.00 0.00 0.00 0.00 0.00 0.00 0.00 0.00 0.00 0.00 0.00 0.00 0.00 0.00 0.00 0.00 0.00 0.00 0.00 0.00 0.00 0.00 0.00 0.00 0.00 0.00 0.00 0.00 0.00 0.00 0.00 0.00 0.00 0.00 0.00 0.00 0.00 0.00 0.00 0.00 0.00
0.00 0.00 0.00 0.00 0.00 0.00 0.00 0.00 0.00 0.00 0.00 0.00 0.00 0.00 0.00 0.00 0.00 0.00 0.00 0.00 0.00 0.00 0.00 0.00 0.00 0.00 0.00 0.00 0.00 0.00 0.00 0.00 0.00 0.00 0.00 0.00 0.00 0.00 0.00 0.00 0.00 0.00 0.00 0.00
0.00 0.00 0.00 0.00 0.00 0.00 0.00 0.00 0.00 0.00 0.00 0.00 0.00 0.00 0.00 0.00 0.00 0.00 0.00 0.00 0.00 0.00 0.00 0.00 0.00 0.00 0.00 0.00 0.00 0.00 0.00 0.00 0.00 0.00 0.00 0.00 0.00 0.00 0.00 0.00 0.00 0.00 0.00 0.00
0.00 0.00 0.00 0.00 0.00 0.00 0.00 0.00 0.00 0.00 0.00 0.00 0.00 0.00 0.00 0.00 0.00 0.00 0.00 0.00 0.00 0.00 0.00 0.00 0.00 0.00 0.00 0.00 0.00 0.00 0.00 0.00 0.00 0.00 0.00 0.00 0.00 0.00 0.00 0.00 0.00 0.00 0.00 0.00
0.00 0.00 0.00 0.00 0.00 0.00 0.00 0.00 0.00 0.00 0.00 0.00 0.00 0.00 0.00 0.00 0.00 0.00 0.00 0.00 0.00 0.00 0.00 0.00 0.00 0.00 0.00 0.00 0.00 0.00 0.00 0.00 0.00 0.00 0.00 0.00 0.00 0.00 0.00 0.00 0.00 0.00 0.00 0.00
0.00 0.00 0.00 0.00 0.00 0.00 0.00 0.00 0.00 0.00 0.00 0.00 0.00 0.00 0.00 0.00 0.00 0.00 0.00 0.00 0.00 0.00 0.00 0.00 0.00 0.00 0.00 0.00 0.00 0.00 0.00 0.00 0.00 0.00 0.00 0.00 0.00 0.00 0.00 0.00 0.00 0.00 0.00 0.00
0.00 0.00 0.00 0.00 0.00 0.00 0.00 0.00 0.00 0.00 0.00 0.00 0.00 0.00 0.00 0.00 0.00 0.00 0.00 0.00 0.00 0.00 0.00 0.00 0.00 0.00 0.00 0.00 0.00 0.00 0.00 0.00 0.00 0.00 0.00 0.00 0.00 0.00 0.00 0.00 0.00 0.00 0.00 0.00
0.00 0.00 0.00 0.00 0.00 0.00 0.00 0.00 0.00 0.00 0.00 0.00 0.00 0.00 0.00 0.00 0.00 0.00 0.00 0.00 0.00 0.00 0.00 0.00 0.00 0.00 0.00 0.00 0.00 0.00 0.00 0.00 0.00 0.00 0.00 0.00 0.00 0.00 0.00 0.00 0.00 0.00 0.00 0.00
0.00 0.00 0.00 0.00 0.00 0.00 0.00 0.00 0.00 0.00 0.00 0.00 0.00 0.00 0.00 0.00 0.00 0.00 0.00 0.00 0.00 0.00 0.00 0.00 0.00 0.00 0.00 0.00 0.00 0.00 0.00 0.00 0.00 0.00 0.00 0.00 0.00 0.00 0.00 0.00 0.00 0.00 0.00 0.00
MSLP
1005.57 1006.32 1006.40 1006.44 1006.85 1006.94 1007.23 1007.65 1007.93 1007.77 1007.80 1009.08 1009.65 1010.33 1010.65 1011.69 1012.41 1012.63 1012.88 1013.25 1013.54 1013.65 1013.64 1014.35 1014.86 1015.49 1016.07 1016.57 1017.02 1017.05 1017.37 1017.50 1017.99 1018.46 1018.77 1018.80 1018.62 1018.22 1018.27 1017.94 1017.91 1018.02 1018.21 1018.11
1006.49 1006.20 1005.79 1006.04 1006.43 1006.92 1007.29 1007.46 1006.85 1006.86 1006.87 1008.59 1009.68 1010.50 1010.69 1010.85 1010.71 1011.18 1011.70 1012.13 1012.63 1013.23 1013.71 1013.88 1014.30 1014.96 1015.34 1015.73 1016.00 1016.66 1016.90 1017.14 1017.46 1017.81 1017.86 1018.06 1018.01 1017.93 1017.69 1017.47 1017.28 1017.62 1018.07 1018.11
1006.38 1005.78 1005.24 1005.78 1006.20 1006.54 1006.53 1006.90 1006.31 1007.00 1007.60 1008.55 1009.50 1011.05 1011.26 1011.04 1011.13 1011.15 1011.30 1011.54 1012.11 1012.48 1013.06 1013.43 1013.65 1014.07 1014.45 1015.08 1015.43 1015.82 1016.02 1016.39 1016.88 1017.45 1018.01 1017.98 1018.07 1017.91 1017.85 1017.72 1017.58 1017.20 1017.73 1017.90
1006.23 1005.45 1005.32 1005.53 1005.60 1005.96 1006.05 1005.16 1005.67 1006.45 1007.43 1008.58 1009.27 1011.08 1010.92 1010.61 1010.67 1010.40 1010.56 1010.92 1011.11 1011.47 1012.07 1012.49 1012.95 1013.30 1013.40 1013.78 1013.94 1014.58 1015.56 1016.40 1017.01 1017.42 1017.46 1017.44 1017.89 1018.13 1017.82 1017.94 1017.87 1017.54 1017.29 1017.68
1005.46 1005.00 1004.79 1004.80 1004.23 1005.05 1005.05 1004.67 1005.45 1005.78 1007.83 1008.85 1009.87 1010.47 1009.65 1009.80 1010.04 1009.24 1009.25 1009.63 1010.07 1010.34 1010.94 1011.34 1011.64 1012.23 1012.43 1013.16 1013.99 1014.79 1016.01 1016.74 1017.03 1017.35 1017.70 1018.00 1018.05 1017.77 1017.55 1017.80 1017.98 1017.82 1017.26 1016.95
1005.04 1004.62 1004.21 1003.51 1003.53 1004.10 1004.23 1005.05 1005.92 1007.39 1008.44 1009.89 1009.09 1009.73 1009.30 1008.78 1007.29 1007.03 1008.06 1008.57 1008.88 1009.32 1009.91 1010.37 1010.79 1011.63 1012.09 1012.90 1014.13 1015.29 1016.13 1016.26 1016.40 1016.91 1017.35 1017.68 1017.67 1017.87 1017.92 1017.70 1018.11 1017.87 1017.44 1017.19
1005.23 1004.31 1003.63 1003.13 1003.42 1003.64 1004.36 1005.72 1007.02 1008.66 1009.56 1009.67 1008.91 1009.33 1007.53 1005.97 1005.31 1005.13 1005.65 1006.69 1007.27 1008.09 1008.98 1009.49 1010.06 1010.69 1011.46 1013.32 1014.15 1014.48 1014.24 1014.50 1014.89 1014.98 1014.84 1015.15 1016.26 1016.68 1017.24 1017.20 1017.33 1017.49 1017.59 1017.63
1005.78 1004.52 1003.13 1002.63 1002.85 1003.36 1004.30 1005.31 1006.98 1008.69 1010.16 1009.62 1009.21 1007.78 1005.48 1004.58 1004.01 1003.87 1004.29 1004.97 1006.23 1007.27 1007.83 1008.55 1009.15 1009.54 1011.80 1012.63 1013.10 1013.18 1013.46 1014.88 1015.74 1015.30 1014.84 1015.33 1015.16 1016.04 1016.30 1016.69 1016.55 1016.83 1017.01 1016.86
1005.37 1004.52 1002.71 1002.09 1001.94 1002.88 1004.19 1005.31 1006.15 1008.20 1009.81 1009.86 1008.57 1006.82 1005.04 1004.14 1003.60 1003.99 1004.68 1005.59 1005.90 1006.38 1007.04 1007.65 1008.25 1010.04 1011.04 1011.89 1012.33 1012.85 1013.84 1014.08 1013.40 1014.82 1015.03 1015.52 1015.61 1015.71 1015.71 1016.69 1016.78 1016.37 1016.35 1016.34
1004.48 1004.53 1002.98 1002.08 1001.99 1002.65 1003.26 1004.38 1006.35 1008.07 1009.50 1009.95 1008.79 1007.52 1006.32 1005.28 1004.67 1004.69 1005.28 1005.58 1005.67 1006.10 1006.95 1007.72 1008.85 1009.67 1010.59 1011.24 1011.86 1012.55 1013.06 1013.11 1013.78 1014.32 1014.58 1014.81 1015.12 1015.67 1015.44 1016.44 1016.78 1017.04 1017.01 1016.05
1004.24 1004.67 1003.73 1002.75 1002.40 1002.74 1003.59 1004.50 1006.24 1007.73 1008.86 1009.60 1009.21 1007.85 1005.62 1005.38 1005.37 1004.99 1005.26 1005.50 1005.67 1006.14 1006.85 1007.70 1008.40 1009.54 1010.42 1011.11 1011.65 1012.10 1012.61 1013.22 1013.80 1014.39 1014.59 1015.03 1015.00 1014.96 1014.97 1015.35 1015.68 1016.52 1016.97 1016.69
1003.84 1004.57 1004.79 1003.68 1002.50 1002.57 1002.93 1003.75 1004.97 1007.32 1009.06 1009.38 1008.67 1006.98 1005.69 1005.49 1005.77 1005.71 1006.08 1006.16 1006.15 1006.54 1007.03 1007.79 1008.94 1010.13 1011.05 1011.63 1012.17 1012.58 1012.95 1013.43 1014.08 1014.39 1014.51 1014.64 1014.67 1014.91 1015.34 1015.50 1015.90 1016.02 1016.39 1016.30
1003.28 1004.29 1004.70 1004.20 1003.50 1002.77 1002.91 1003.64 1004.80 1006.02 1007.30 1008.39 1008.45 1007.06 1006.12 1005.95 1006.45 1006.42 1006.33 1006.88 1007.19 1007.63 1008.22 1009.07 1010.09 1011.08 1011.92 1012.49 1012.95 1013.32 1013.67 1014.04 1014.48 1014.65 1014.60 1014.85 1015.13 1015.45 1015.74 1016.08 1016.16 1015.85 1015.77 1015.85
1001.63 1003.40 1003.77 1003.67 1003.44 1002.98 1003.10 1003.38 1004.12 1005.01 1006.69 1007.55 1007.29 1006.60 1006.64 1006.92 1006.88 1007.29 1007.41 1007.81 1008.48 1008.82 1009.45 1010.19 1011.21 1012.05 1012.66 1013.26 1013.60 1013.91 1014.17 1014.23 1014.44 1014.57 1014.71 1015.02 1015.46 1015.74 1015.86 1016.08 1015.88 1015.86 1015.85 1015.98
1001.68 1003.03 1003.46 1003.09 1002.60 1002.64 1002.44 1002.70 1003.35 1004.11 1004.48 1005.55 1005.42 1005.97 1005.67 1006.11 1006.42 1006.81 1007.59 1008.53 1009.01 1009.77 1010.37 1010.92 1011.65 1012.34 1012.99 1013.50 1013.97 1014.28 1014.44 1014.56 1014.67 1014.83 1015.03 1015.35 1015.63 1015.92 1016.25 1015.97 1015.66 1015.63 1015.74 1015.47
1002.08 1002.80 1003.19 1003.24 1002.47 1002.21 1002.27 1001.94 1002.23 1002.90 1003.42 1004.09 1004.42 1005.03 1004.54 1005.90 1006.95 1007.54 1007.99 1008.63 1009.33 1009.88 1010.67 1011.33 1011.81 1012.47 1013.18 1013.41 1013.82 1014.28 1014.71 1014.95 1015.13 1015.61 1015.62 1015.67 1015.93 1015.78 1015.70 1015.85 1015.95 1015.85 1015.72 1015.63
1002.91 1002.90 1003.65 1003.42 1002.53 1002.54 1002.21 1000.89 1001.29 1001.74 1001.99 1002.65 1003.76 1003.72 1004.40 1006.07 1006.72 1006.99 1007.70 1008.37 1009.07 1009.78 1010.81 1011.44 1011.95 1012.77 1013.52 1013.83 1014.16 1014.64 1015.06 1015.30 1015.44 1015.66 1015.86 1015.87 1015.86 1016.16 1016.27 1016.28 1016.24 1016.14 1016.02 1015.96
1002.89 1003.28 1003.28 1003.74 1003.38 1002.69 999.92 999.48 999.79 1000.48 1001.03 1001.82 1002.60 1003.21 1003.65 1004.89 1006.58 1007.26 1007.76 1008.01 1008.97 1009.94 1011.29 1011.88 1012.51 1013.23 1014.04 1014.46 1014.92 1015.35 1015.75 1016.04 1016.14 1016.36 1016.56 1016.68 1016.73 1016.77 1016.67 1016.58 1016.53 1016.38 1016.21 1015.97
1002.09 1002.92 1003.71 1003.55 1003.25 1001.99 1000.26 999.71 999.40 999.79 1000.67 1001.11 1002.34 1003.60 1004.57 1005.71 1007.04 1008.42 1008.51 1008.94 1009.09 1010.28 1011.45 1012.00 1012.79 1013.37 1014.35 1015.10 1015.67 1016.10 1016.60 1016.81 1016.94 1017.20 1017.30 1017.34 1017.36 1017.42 1017.45 1017.28 1016.98 1016.37 1016.01 1015.69
1002.06 1001.73 1002.93 1003.36 1002.97 1001.84 999.78 998.84 998.23 999.03 1000.26 1001.26 1001.81 1003.36 1004.73 1005.91 1007.24 1008.05 1008.56 1009.17 1010.08 1010.80 1011.77 1012.55 1013.22 1013.84 1014.91 1016.08 1016.34 1016.67 1017.49 1017.71 1018.02 1018.09 1018.14 1018.13 1017.82 1017.67 1017.45 1017.15 1016.77 1016.24 1015.87 1015.73
1002.34 1002.68 1002.84 1002.89 1001.98 1000.55 999.04 998.41 998.34 999.22 1000.20 1000.84 1001.53 1002.39 1003.99 1004.86 1004.74 1006.73 1008.69 1009.83 1010.41 1011.09 1012.35 1013.08 1013.48 1014.85 1015.87 1016.61 1017.05 1017.59 1018.06 1018.30 1018.26 1018.16 1018.00 1017.83 1017.78 1017.63 1017.35 1017.18 1016.98 1016.88 1016.77 1016.60
1000.83 1001.85 1002.49 1002.18 1001.37 999.77 997.99 998.65 998.41 998.51 999.19 999.74 1001.29 1001.98 1003.25 1004.66 1005.78 1007.49 1008.91 1009.93 1011.20 1012.19 1013.14 1013.44 1014.53 1015.74 1016.64 1017.27 1017.52 1018.27 1018.52 1018.55 1018.40 1018.39 1018.34 1018.32 1018.15 1017.96 1017.70 1017.60 1017.37 1017.20 1017.09 1017.00
1000.03 999.64 1000.47 1000.72 999.89 998.33 997.32 997.08 997.04 997.51 998.79 1000.20 1000.98 1002.23 1003.15 1004.09 1005.61 1007.43 1009.15 1010.36 1011.60 1012.93 1013.44 1014.10 1015.13 1016.15 1016.92 1017.65 1018.19 1018.67 1018.74 1018.65 1018.63 1018.51 1018.61 1018.41 1018.22 1018.04 1017.81 1017.77 1017.64 1017.38 1017.37 1017.30
998.94 998.69 999.62 1000.21 999.26 998.69 998.16 998.03 997.98 998.06 998.80 999.82 1000.94 1002.28 1003.52 1004.50 1005.93 1007.63 1009.50 1010.94 1012.29 1013.46 1013.97 1014.89 1015.97 1017.10 1018.05 1018.29 1018.75 1018.83 1018.82 1018.87 1018.93 1018.73 1018.62 1018.51 1018.39 1018.34 1018.13 1018.10 1018.01 1017.79 1017.85 1017.75
998.52 998.62 999.42 999.64 999.31 998.99 998.73 998.65 998.47 998.94 999.52 1000.91 1002.17 1003.00 1004.08 1005.39 1007.25 1007.94 1009.60 1011.25 1012.74 1013.78 1014.73 1015.57 1016.54 1017.55 1018.34 1018.72 1018.78 1018.87 1018.79 1018.76 1018.83 1018.77 1018.76 1018.71 1018.57 1018.56 1018.69 1018.49 1018.39 1018.25 1018.30 1018.24
998.55 998.67 999.28 998.59 998.30 998.45 998.88 999.13 999.21 999.32 1000.16 1001.35 1001.93 1004.12 1005.42 1005.62 1007.13 1009.06 1010.75 1011.99 1013.03 1014.22 1015.24 1016.25 1017.22 1017.92 1018.43 1018.59 1018.81 1018.77 1018.54 1018.65 1018.83 1019.04 1019.06 1018.97 1018.79 1018.64 1018.53 1018.53 1018.49 1018.44 1018.48 1018.51
Thickness
5830 5810 5798 5816 5817 5821 5820 5809 5802 5816 5833 5812 5809 5808 5818 5814 5809 5806 5806 5802 5801 5800 5805 5802 5800 5796 5790 5786 5782 5782 5780 5779 5775 5770 5767 5766 5768 5772 5771 5771 5769 5768 5766 5764
5810 5798 5825 5831 5827 5820 5814 5807 5811 5824 5838 5818 5807 5805 5819 5822 5823 5822 5817 5813 5810 5806 5804 5805 5804 5800 5797 5794 5793 5787 5785 5784 5782 5779 5778 5775 5775 5776 5777 5777 5777 5772 5765 5762
5798 5819 5836 5829 5822 5818 5817 5808 5814 5810 5824 5819 5812 5793 5801 5818 5821 5824 5824 5824 5819 5814 5807 5807 5809 5806 5805 5799 5797 5795 5794 5791 5786 5781 5775 5776 5776 5776 5776 5776 5775 5774 5767 5763
5806 5827 5827 5826 5821 5821 5804 5837 5833 5823 5816 5784 5816 5764 5793 5811 5814 5824 5827 5825 5824 5823 5819 5817 5814 5813 5815 5812 5813 5805 5797 5790 5784 5780 5779 5780 5773 5768 5771 5770 5769 5771 5770 5763
5806 5822 5823 5819 5831 5834 5820 5847 5836 5835 5802 5797 5797 5777 5793 5814 5806 5822 5832 5834 5832 5832 5828 5825 5825 5822 5823 5819 5810 5802 5791 5783 5781 5778 5774 5769 5768 5773 5774 5769 5764 5764 5767 5768
5816 5837 5836 5840 5849 5844 5850 5836 5821 5803 5791 5767 5796 5788 5790 5806 5829 5841 5842 5841 5841 5838 5835 5833 5834 5828 5825 5820 5808 5796 5787 5786 5784 5780 5774 5766 5766 5768 5762 5764 5756 5756 5759 5763
5806 5818 5840 5853 5834 5844 5833 5805 5764 5770 5762 5766 5798 5786 5810 5838 5855 5860 5859 5855 5853 5848 5840 5837 5834 5831 5827 5811 5804 5802 5803 5801 5800 5800 5799 5789 5777 5768 5759 5761 5760 5757 5753 5752
5772 5779 5828 5851 5837 5826 5824 5812 5767 5762 5749 5772 5788 5791 5825 5853 5871 5877 5875 5873 5864 5853 5850 5845 5842 5841 5822 5816 5810 5811 5806 5795 5788 5791 5793 5783 5779 5768 5760 5761 5763 5761 5754 5754
5770 5783 5841 5852 5858 5846 5824 5804 5821 5773 5769 5766 5782 5813 5846 5856 5862 5867 5865 5863 5860 5859 5856 5854 5851 5837 5826 5820 5817 5811 5799 5791 5804 5786 5787 5779 5772 5767 5758 5751 5751 5755 5754 5750
5804 5786 5828 5846 5856 5848 5836 5833 5796 5775 5769 5762 5773 5788 5795 5836 5846 5854 5855 5855 5861 5862 5857 5855 5845 5836 5830 5826 5820 5813 5805 5800 5793 5789 5788 5785 5775 5767 5767 5751 5744 5742 5741 5747
5804 5793 5802 5831 5821 5818 5819 5810 5792 5787 5771 5753 5753 5773 5823 5836 5839 5846 5852 5856 5857 5858 5857 5851 5847 5839 5831 5827 5823 5817 5810 5801 5792 5785 5782 5777 5773 5770 5764 5755 5752 5742 5738 5738
5803 5784 5772 5793 5830 5841 5834 5820 5811 5774 5774 5762 5763 5780 5837 5837 5839 5843 5844 5849 5853 5856 5853 5849 5841 5830 5823 5817 5811 5807 5802 5796 5789 5784 5779 5775 5769 5765 5759 5753 5747 5743 5736 5734
5799 5767 5758 5771 5800 5820 5822 5819 5804 5794 5783 5763 5762 5776 5830 5832 5831 5839 5841 5842 5842 5844 5839 5834 5827 5819 5812 5806 5800 5796 5793 5788 5780 5776 5773 5767 5762 5755 5746 5740 5738 5738 5737 5732
5818 5770 5783 5774 5784 5804 5808 5816 5811 5803 5767 5771 5776 5803 5816 5816 5823 5828 5833 5833 5827 5826 5823 5818 5813 5808 5804 5797 5792 5788 5783 5781 5777 5772 5766 5757 5751 5744 5740 5735 5734 5731 5727 5719
5799 5773 5777 5793 5810 5810 5817 5819 5808 5803 5804 5792 5806 5801 5817 5823 5828 5833 5831 5825 5824 5818 5812 5809 5803 5800 5793 5788 5784 5780 5777 5773 5768 5761 5755 5748 5740 5735 5730 5730 5729 5723 5716 5712
5784 5775 5780 5779 5802 5805 5805 5816 5813 5816 5807 5815 5808 5807 5835 5824 5822 5822 5825 5823 5817 5813 5807 5802 5800 5793 5785 5782 5778 5773 5766 5760 5754 5745 5741 5737 5732 5730 5727 5719 5712 5707 5703 5699
5768 5764 5756 5764 5791 5789 5775 5805 5813 5818 5823 5818 5795 5825 5828 5816 5821 5825 5823 5822 5816 5811 5801 5796 5793 5785 5779 5775 5770 5761 5754 5748 5742 5737 5732 5730 5727 5718 5711 5704 5698 5692 5686 5680
5764 5760 5759 5767 5771 5737 5811 5829 5836 5827 5832 5827 5831 5827 5836 5831 5819 5820 5823 5820 5814 5806 5793 5790 5785 5777 5769 5763 5756 5748 5742 5736 5732 5725 5718 5711 5705 5699 5692 5686 5681 5676 5671 5667
5775 5760 5744 5744 5741 5773 5805 5818 5820 5821 5819 5835 5822 5818 5820 5820 5813 5802 5811 5812 5809 5798 5789 5783 5776 5770 5760 5753 5746 5739 5729 5722 5716 5707 5700 5693 5685 5679 5673 5669 5667 5666 5664 5661
5763 5774 5763 5739 5741 5746 5795 5828 5848 5846 5792 5824 5827 5819 5814 5816 5794 5795 5804 5803 5794 5788 5780 5772 5766 5761 5750 5738 5732 5725 5712 5705 5697 5691 5684 5677 5674 5669 5665 5662 5660 5658 5656 5651
5746 5747 5750 5740 5753 5770 5812 5834 5843 5787 5798 5826 5832 5827 5819 5820 5826 5812 5800 5790 5788 5781 5769 5763 5759 5745 5734 5725 5718 5709 5700 5693 5687 5682 5678 5674 5668 5664 5661 5656 5650 5643 5636 5630
5757 5743 5740 5739 5748 5769 5827 5822 5809 5826 5835 5837 5830 5831 5822 5811 5810 5800 5792 5784 5773 5764 5756 5754 5743 5730 5719 5710 5704 5693 5688 5683 5678 5673 5668 5662 5657 5652 5647 5640 5634 5628 5622 5617
5760 5770 5760 5763 5765 5810 5830 5839 5846 5844 5833 5828 5827 5818 5818 5814 5806 5795 5783 5774 5764 5752 5748 5740 5729 5717 5708 5698 5691 5683 5678 5673 5667 5662 5655 5650 5645 5640 5635 5628 5622 5617 5611 5606
5781 5785 5771 5777 5796 5805 5817 5824 5831 5836 5833 5827 5821 5813 5809 5803 5797 5786 5773 5761 5749 5740 5734 5725 5714 5704 5692 5686 5678 5672 5666 5660 5653 5650 5645 5639 5632 5626 5621 5615 5608 5605 5599 5595
5770 5780 5770 5772 5791 5801 5808 5813 5818 5821 5823 5813 5806 5802 5797 5791 5778 5775 5763 5749 5738 5728 5719 5712 5703 5692 5681 5673 5669 5662 5657 5652 5647 5641 5635 5627 5622 5613 5606 5601 5596 5593 5586 5580
5763 5766 5763 5765 5792 5796 5796 5802 5809 5814 5810 5805 5803 5788 5782 5783 5771 5758 5743 5735 5726 5715 5706 5697 5687 5679 5670 5666 5659 5655 5652 5645 5638 5629 5621 5615 5611 5607 5602 5594 5590 5583 5573 5567